FW5142 Weather Reports


time (UTC)temp
C
wind
direction
speed
KPH
gust
KPH
rain 1hr
cm
rain 24hr
cm
rain mn
cm
humidity
%
barometer
mb
20260510044304 23 110 12.9 22.5 0.00 0.00 0.00 63 1007.0
20260510043804 24 0 12.9 22.5 0.00 0.00 0.00 63 1007.0
20260510043258 24 0 12.9 17.7 0.00 0.00 0.00 63 1006.9
20260510042751 24 0 12.9 17.7 0.00 0.00 0.00 62 1006.8
20260510042245 25 0 9.7 16.1 0.00 0.00 0.00 61 1006.6
20260510041740 25 0 8.0 14.5 0.00 0.00 0.00 60 1006.6
20260510041234 25 0 9.7 14.5 0.00 0.00 0.00 59 1006.4
20260510040727 25 107 9.7 14.5 0.00 0.00 0.00 59 1006.3
20260510040221 25 0 9.7 17.7 0.00 0.00 0.00 59 1006.1
20260510035715 25 0 11.3 17.7 0.00 0.00 0.00 59 1006.0
20260510034703 25 0 14.5 22.5 0.00 0.00 0.00 59 1005.8
20260510032640 26 0 16.1 24.1 0.00 0.03 0.00 58 1005.6
20260510032134 26 0 16.1 24.1 0.00 0.03 0.00 58 1005.5
20260510031640 26 0 16.1 24.1 0.00 0.05 0.00 57 1005.5
20260510031122 26 0 17.7 24.1 0.00 0.05 0.00 57 1005.4
20260510030618 26 0 16.1 22.5 0.00 0.05 0.00 57 1005.4
20260510030119 26 0 16.1 25.7 0.00 0.05 0.00 56 1005.2
20260510025617 27 0 16.1 25.7 0.00 0.05 0.00 56 1005.2
20260510025116 27 0 16.1 25.7 0.00 0.05 0.00 55 1005.0
20260510024617 27 0 16.1 25.7 0.00 0.05 0.00 55 1005.0
20260510024115 27 0 17.7 27.4 0.00 0.05 0.00 54 1004.8
20260510023617 27 0 19.3 29.0 0.00 0.05 0.00 54 1004.8
20260510023116 27 0 19.3 33.8 0.00 0.05 0.00 54 1004.7
20260510022110 27 0 19.3 30.6 0.00 0.05 0.00 54 1004.5
20260510021612 27 0 19.3 30.6 0.00 0.05 0.00 53 1004.4
20260510020610 28 0 22.5 41.8 0.00 0.05 0.00 53 1004.2
20260510020113 28 0 20.9 41.8 0.00 0.05 0.00 53 1004.1
20260510015609 28 0 20.9 30.6 0.00 0.05 0.00 52 1004.0
20260510014610 28 0 22.5 33.8 0.00 0.05 0.00 51 1003.7
20260510014106 28 0 22.5 35.4 0.00 0.05 0.00 51 1003.7
20260510013609 28 0 24.1 35.4 0.00 0.05 0.00 50 1003.6
20260510012556 29 0 24.1 38.6 0.00 0.05 0.00 49 1003.6
20260510012050 29 0 24.1 38.6 0.00 0.05 0.00 48 1003.7
20260510011543 29 0 24.1 37.0 0.00 0.05 0.00 48 1003.6
20260510011037 29 0 25.7 40.2 0.00 0.05 0.00 47 1003.6
20260510010532 29 0 24.1 40.2 0.00 0.05 0.00 47 1003.5
20260510010030 30 0 24.1 37.0 0.00 0.05 0.00 47 1003.6
20260510005527 30 0 25.7 37.0 0.00 0.05 0.00 46 1003.6
20260510004526 30 0 27.4 46.7 0.00 0.05 0.00 46 1003.7
20260510003528 30 0 27.4 46.7 0.00 0.05 0.00 45 1003.5
20260510003026 30 0 27.4 46.7 0.00 0.05 0.00 45 1003.6
20260510002526 30 0 27.4 41.8 0.00 0.05 0.00 46 1003.7
20260510002027 30 0 27.4 41.8 0.00 0.05 0.00 46 1003.6
20260510001540 30 0 25.7 41.8 0.00 0.05 0.00 46 1003.5
20260510001022 30 0 25.7 41.8 0.00 0.05 0.00 45 1003.6
20260510000524 30 0 27.4 41.8 0.00 0.05 0.00 44 1003.7
20260510000022 31 0 27.4 40.2 0.00 0.05 0.00 44 1003.7
20260509235522 31 0 29.0 46.7 0.00 0.05 0.00 44 1003.7
20260509235023 31 0 30.6 46.7 0.00 0.05 0.00 44 1003.8
20260509234525 31 0 29.0 43.5 0.00 0.05 0.00 43 1003.7
20260509234025 31 0 27.4 41.8 0.00 0.05 0.00 43 1004.0
20260509233024 31 0 25.7 40.2 0.00 0.05 0.00 44 1004.1
20260509232522 31 0 27.4 40.2 0.00 0.05 0.00 45 1004.1
20260509232022 31 0 25.7 35.4 0.00 0.05 0.00 46 1004.3
20260509231522 30 0 24.1 35.4 0.00 0.05 0.00 46 1004.5
20260509231022 30 111 24.1 37.0 0.00 0.05 0.00 47 1004.7
20260509230022 30 0 20.9 33.8 0.00 0.05 0.00 44 1004.9
20260509225522 31 0 20.9 32.2 0.00 0.05 0.00 44 1004.8
20260509224522 31 0 20.9 29.0 0.00 0.05 0.00 43 1004.7
20260509223523 31 0 24.1 38.6 0.00 0.05 0.00 42 1004.4
20260509223022 31 0 25.7 40.2 0.00 0.05 0.00 42 1004.5
20260509222521 32 0 25.7 40.2 0.00 0.05 0.00 41 1004.5
20260509222020 32 0 27.4 41.8 0.00 0.05 0.00 41 1004.6
20260509221533 32 0 29.0 41.8 0.00 0.05 0.00 40 1004.7
20260509221018 33 0 27.4 41.8 0.00 0.05 0.00 40 1004.6
20260509220020 33 0 24.1 38.6 0.00 0.05 0.00 40 1004.9
20260509215516 33 0 22.5 38.6 0.00 0.05 0.00 40 1004.9
20260509214516 33 0 22.5 35.4 0.00 0.05 0.00 41 1005.2
20260509214016 33 0 22.5 38.6 0.00 0.05 0.00 41 1005.3
20260509213516 33 0 20.9 38.6 0.00 0.05 0.00 40 1005.4
20260509212509 33 0 24.1 40.2 0.00 0.05 0.00 40 1005.5
20260509212009 33 0 24.1 38.6 0.00 0.05 0.00 39 1005.5
20260509211508 33 0 20.9 33.8 0.00 0.05 0.00 39 1005.7
20260509211008 33 0 20.9 33.8 0.00 0.05 0.00 39 1005.7
20260509210508 33 0 20.9 35.4 0.00 0.05 0.00 39 1005.7
20260509210009 33 0 20.9 35.4 0.00 0.05 0.00 39 1005.9
20260509205508 33 0 20.9 30.6 0.00 0.05 0.00 39 1006.0
20260509205008 33 0 19.3 30.6 0.00 0.05 0.00 39 1006.1
20260509204507 33 139 17.7 30.6 0.00 0.05 0.00 39 1006.1
20260509204009 33 119 16.1 30.6 0.00 0.05 0.00 39 1006.3
20260509203507 33 0 17.7 29.0 0.00 0.05 0.00 39 1006.4
20260509203004 33 123 17.7 29.0 0.00 0.05 0.00 39 1006.6
20260509202504 33 113 17.7 27.4 0.00 0.05 0.00 40 1006.7
20260509202004 33 0 16.1 27.4 0.00 0.05 0.00 40 1006.8
20260509201504 33 0 16.1 25.7 0.00 0.05 0.00 40 1006.9
20260509201006 33 120 16.1 25.7 0.00 0.05 0.00 40 1007.0
20260509200505 33 0 16.1 25.7 0.00 0.05 0.00 40 1007.0
20260509195959 32 0 16.1 33.8 0.00 0.05 0.00 41 1007.1
20260509194948 32 158 14.5 29.0 0.00 0.05 0.00 42 1007.2
20260509193935 32 0 12.9 32.2 0.00 0.05 0.00 43 1007.4
20260509193430 32 0 12.9 25.7 0.00 0.05 0.00 43 1007.5
20260509192924 31 0 14.5 25.7 0.00 0.05 0.00 43 1007.6
20260509192418 31 0 12.9 25.7 0.00 0.05 0.00 43 1007.7
20260509191912 31 0 11.3 25.7 0.00 0.05 0.00 44 1007.8
20260509191406 31 0 11.3 20.9 0.00 0.05 0.00 45 1007.9
20260509190900 31 0 12.9 32.2 0.00 0.05 0.00 45 1008.0
20260509190354 31 0 14.5 32.2 0.00 0.05 0.00 45 1008.2
20260509185342 30 0 12.9 25.7 0.00 0.05 0.00 46 1008.3
20260509184835 30 0 11.3 20.9 0.00 0.05 0.00 46 1008.4
20260509184329 30 0 11.3 22.5 0.00 0.05 0.00 47 1008.4
20260509183824 30 186 12.9 24.1 0.00 0.05 0.00 47 1008.6
20260509182811 30 159 14.5 22.5 0.00 0.05 0.00 48 1008.9
20260509182307 30 0 11.3 22.5 0.00 0.05 0.00 49 1009.1
20260509181800 29 0 11.3 22.5 0.00 0.05 0.00 50 1009.2
20260509181255 29 240 11.3 22.5 0.00 0.05 0.00 49 1009.3
20260509180242 28 0 11.3 19.3 0.00 0.05 0.00 51 1009.5
20260509175736 28 0 11.3 19.3 0.00 0.05 0.00 52 1009.6
20260509175230 28 0 9.7 19.3 0.00 0.05 0.00 54 1009.6
20260509174724 28 0 8.0 19.3 0.00 0.05 0.00 54 1009.6
20260509174218 28 150 6.4 20.9 0.00 0.05 0.00 55 1009.7
20260509173712 28 0 9.7 20.9 0.00 0.05 0.00 55 1009.8
20260509173205 27 159 9.7 17.7 0.00 0.05 0.00 56 1009.9
20260509172659 27 161 9.7 24.1 0.00 0.05 0.00 57 1010.0
20260509172154 27 161 8.0 24.1 0.00 0.05 0.00 58 1010.1
20260509171700 27 0 8.0 22.5 0.00 0.05 0.00 59 1010.2
20260509171143 27 0 6.4 22.5 0.00 0.05 0.00 60 1010.2
20260509170636 26 152 6.4 17.7 0.00 0.05 0.00 62 1010.4
20260509170130 26 150 8.0 17.7 0.00 0.05 0.00 62 1010.5
20260509165623 26 137 6.4 16.1 0.00 0.05 0.00 63 1010.5
20260509165118 26 113 4.8 16.1 0.00 0.05 0.00 64 1010.6
20260509164611 25 0 4.8 16.1 0.00 0.05 0.00 65 1010.6
20260509164106 25 0 6.4 16.1 0.00 0.05 0.00 66 1010.7
20260509163605 25 0 4.8 16.1 0.00 0.05 0.00 67 1010.7
20260509163105 25 0 4.8 16.1 0.00 0.05 0.00 68 1010.8
20260509162605 25 0 6.4 19.3 0.00 0.05 0.00 69 1010.8
20260509162102 25 0 6.4 19.3 0.00 0.05 0.00 69 1010.9
20260509161601 24 0 6.4 14.5 0.00 0.05 0.00 70 1011.0
20260509161058 24 0 4.8 14.5 0.00 0.05 0.00 71 1011.0
20260509160101 23 158 4.8 14.5 0.00 0.05 0.00 73 1010.9
20260509155557 23 0 3.2 12.9 0.00 0.05 0.00 74 1010.9
20260509155058 23 0 4.8 12.9 0.00 0.05 0.00 75 1010.9
20260509154559 23 0 3.2 9.7 0.00 0.05 0.00 76 1010.9
20260509153558 22 142 4.8 12.9 0.00 0.05 0.00 77 1010.9
20260509153059 22 125 4.8 12.9 0.00 0.05 0.00 78 1010.9
20260509152558 22 0 4.8 11.3 0.00 0.05 0.00 80 1011.0
20260509152058 22 142 4.8 16.1 0.00 0.05 0.00 80 1011.0
20260509151057 22 159 4.8 14.5 0.00 0.05 0.00 82 1011.1
20260509150057 21 0 4.8 12.9 0.00 0.05 0.00 83 1011.1
20260509145538 21 128 6.4 14.5 0.00 0.05 0.00 83 1011.1
20260509145032 21 144 6.4 14.5 0.00 0.05 0.00 83 1011.1
20260509144533 21 160 3.2 11.3 0.00 0.05 0.00 84 1011.2
20260509144032 21 121 3.2 9.7 0.00 0.05 0.00 84 1011.2
20260509143532 20 117 3.2 11.3 0.00 0.05 0.00 84 1011.3
20260509142529 20 107 4.8 9.7 0.00 0.05 0.00 84 1011.4
20260509142028 20 126 4.8 9.7 0.00 0.05 0.00 84 1011.4
20260509141527 20 118 6.4 11.3 0.00 0.05 0.00 84 1011.4
20260509141029 20 103 3.2 11.3 0.00 0.05 0.00 84 1011.7
20260509140527 19 93 3.2 9.7 0.00 0.05 0.00 84 1011.7
20260509140027 19 121 3.2 9.7 0.00 0.05 0.00 84 1011.7
20260509135528 19 85 1.6 6.4 0.00 0.05 0.00 84 1011.7
20260509135029 18 65 0.0 3.2 0.00 0.05 0.00 84 1011.5
20260509134524 18 0 1.6 4.8 0.00 0.05 0.00 85 1011.5
20260509134024 18 65 0.0 6.4 0.00 0.05 0.00 84 1011.4
20260509133524 18 0 1.6 8.0 0.00 0.05 0.00 85 1011.4
20260509133025 17 65 4.8 8.0 0.00 0.05 0.00 85 1011.4
20260509132524 17 0 4.8 9.7 0.00 0.05 0.00 85 1011.3
20260509132023 17 0 3.2 9.7 0.00 0.05 0.00 85 1011.3
20260509131524 17 0 1.6 8.0 0.00 0.05 0.00 85 1011.2
20260509131024 16 5 1.6 6.4 0.00 0.05 0.00 85 1011.2
20260509130524 16 0 1.6 6.4 0.00 0.05 0.00 85 1011.2
20260509130020 16 0 1.6 6.4 0.00 0.05 0.00 84 1011.1
20260509125520 15 0 1.6 6.4 0.00 0.05 0.00 84 1010.9
20260509125019 15 85 0.0 4.8 0.00 0.05 0.00 84 1010.8
20260509124519 15 0 0.0 4.8 0.00 0.05 0.00 84 1010.8
20260509124020 15 0 0.0 4.8 0.00 0.05 0.00 84 1010.8
20260509123521 14 0 0.0 3.2 0.00 0.05 0.00 83 1010.7
20260509123020 14 0 0.0 3.2 0.00 0.05 0.00 83 1010.7
20260509122521 14 0 1.6 3.2 0.00 0.05 0.00 83 1010.7
20260509122018 14 0 0.0 4.8 0.00 0.05 0.00 83 1010.6
20260509121517 14 0 0.0 4.8 0.00 0.05 0.00 83 1010.6
20260509121012 14 0 0.0 1.6 0.00 0.05 0.00 83 1010.5
20260509120505 14 0 0.0 1.6 0.00 0.05 0.00 83 1010.6
20260509120000 14 0 0.0 0.0 0.00 0.05 0.00 82 1010.6
20260509114442 15 0 0.0 3.2 0.00 0.05 0.00 83 1010.5
20260509113935 15 0 0.0 3.2 0.00 0.05 0.00 83 1010.4
20260509112424 15 0 3.2 6.4 0.00 0.05 0.00 82 1010.4
20260509111923 15 0 1.6 4.8 0.00 0.05 0.00 82 1010.4
20260509111424 15 0 1.6 3.2 0.00 0.05 0.00 82 1010.3
20260509110924 15 0 0.0 3.2 0.00 0.05 0.00 82 1010.3
20260509110423 15 0 0.0 1.6 0.00 0.05 0.00 81 1010.2
20260509105924 15 0 0.0 3.2 0.00 0.05 0.00 81 1010.1
20260509105425 15 0 0.0 3.2 0.00 0.05 0.00 81 1010.1
20260509104923 15 0 0.0 3.2 0.00 0.05 0.00 81 1010.1
20260509104421 15 0 0.0 1.6 0.00 0.05 0.00 81 1010.1
20260509103919 15 0 0.0 3.2 0.00 0.05 0.00 81 1010.0
20260509103420 15 0 0.0 4.8 0.00 0.05 0.00 81 1009.9
20260509102417 15 0 0.0 3.2 0.00 0.05 0.00 81 1009.8
20260509101917 15 0 1.6 6.4 0.00 0.05 0.00 81 1009.7
20260509101417 15 0 1.6 6.4 0.00 0.05 0.00 81 1009.6
20260509100916 15 0 0.0 3.2 0.00 0.05 0.00 80 1009.5
20260509095909 15 0 1.6 6.4 0.00 0.05 0.00 80 1009.1
20260509095403 15 0 1.6 8.0 0.00 0.05 0.00 80 1008.9
20260509094351 15 0 1.6 4.8 0.00 0.05 0.00 80 1008.7
20260509093845 15 0 1.6 4.8 0.00 0.05 0.00 79 1008.6
20260509093339 15 0 1.6 4.8 0.00 0.05 0.00 79 1008.7
20260509092834 15 0 1.6 4.8 0.00 0.05 0.00 78 1008.7
20260509091822 15 0 0.0 1.6 0.00 0.05 0.00 79 1008.8
20260509091316 16 0 0.0 1.6 0.00 0.05 0.00 78 1008.8
20260509090304 16 0 0.0 0.0 0.00 0.05 0.00 79 1008.9
20260509085757 16 0 0.0 0.0 0.00 0.05 0.00 79 1008.9
20260509085252 16 0 0.0 0.0 0.00 0.05 0.00 79 1008.9
20260509084746 16 0 0.0 1.6 0.00 0.05 0.00 79 1009.1
20260509084240 16 0 0.0 4.8 0.00 0.05 0.00 79 1009.1
20260509083733 16 0 1.6 4.8 0.00 0.05 0.00 80 1009.2
20260509082722 16 0 1.6 4.8 0.00 0.05 0.00 79 1009.2
20260509082215 16 0 1.6 4.8 0.00 0.05 0.00 79 1009.3
20260509081710 16 0 3.2 6.4 0.00 0.05 0.00 78 1009.3
20260509081204 16 0 3.2 6.4 0.00 0.05 0.00 78 1009.4
20260509080657 16 0 1.6 6.4 0.00 0.05 0.00 78 1009.5
20260509080151 16 0 1.6 6.4 0.00 0.05 0.00 77 1009.5
20260509075645 16 0 1.6 6.4 0.00 0.05 0.00 77 1009.6
20260509075140 17 0 0.0 4.8 0.00 0.05 0.00 77 1009.6
20260509074633 17 0 0.0 1.6 0.00 0.05 0.00 77 1009.7
20260509074128 17 0 0.0 1.6 0.00 0.05 0.00 77 1009.7
20260509073621 17 0 0.0 3.2 0.00 0.05 0.00 77 1009.8
20260509073115 17 0 1.6 6.4 0.00 0.05 0.00 77 1009.8
20260509072609 17 0 3.2 8.0 0.00 0.05 0.00 77 1009.9
20260509072105 17 0 4.8 9.7 0.00 0.05 0.00 77 1010.0
20260509071051 17 0 4.8 9.7 0.00 0.05 0.00 76 1009.9
20260509070545 17 0 6.4 12.9 0.00 0.05 0.00 76 1010.1
20260509065534 17 0 4.8 9.7 0.00 0.05 0.00 76 1009.9
20260509065027 18 0 4.8 8.0 0.00 0.05 0.00 76 1009.9
20260509064522 18 0 3.2 9.7 0.00 0.05 0.00 76 1009.9
20260509063010 18 0 0.0 0.0 0.00 0.05 0.00 76 1009.6
20260509062006 18 0 0.0 0.0 0.00 0.05 0.00 76 1009.7
20260509061502 18 24 0.0 0.0 0.00 0.05 0.00 76 1009.9
20260509061001 19 0 0.0 0.0 0.00 0.05 0.00 76 1010.0
20260509060458 19 0 0.0 0.0 0.00 0.05 0.00 76 1009.9
20260509055958 19 43 1.6 4.8 0.00 0.05 0.00 76 1009.9
20260509054958 20 0 4.8 8.0 0.00 0.05 0.00 77 1009.9
20260509054458 20 41 3.2 8.0 0.00 0.05 0.00 77 1010.0
20260509053956 20 33 3.2 6.4 0.00 0.05 0.00 77 1010.0
20260509053456 20 0 4.8 8.0 0.00 0.05 0.00 77 1009.9
20260509052956 20 34 6.4 12.9 0.00 0.05 0.00 77 1009.9
20260509051953 20 34 4.8 12.9 0.00 0.05 0.00 77 1010.0
20260509050953 20 36 6.4 14.5 0.00 0.05 0.00 77 1009.7
20260509045955 20 33 16.1 25.7 0.00 0.05 0.00 78 1009.9